TimeCDT,TemperatureF,Dew PointF,Humidity,Sea Level PressureIn,VisibilityMPH,Wind Direction,Wind SpeedMPH,Gust SpeedMPH,PrecipitationIn,Events,Conditions,WindDirDegrees,DateUTC
12:53 AM,52.0,37.0,57,30.12,10.0,NNE,4.6,-,N/A,,Clear,30,2013-04-02 05:53:00
1:53 AM,51.1,37.0,59,30.13,10.0,ENE,6.9,-,N/A,,Clear,60,2013-04-02 06:53:00
2:53 AM,50.0,37.0,61,30.14,10.0,NE,9.2,-,N/A,,Clear,50,2013-04-02 07:53:00
3:53 AM,48.0,30.9,52,30.17,10.0,NE,11.5,16.1,N/A,,Clear,50,2013-04-02 08:53:00
4:53 AM,46.0,28.9,51,30.19,10.0,ENE,4.6,-,N/A,,Scattered Clouds,60,2013-04-02 09:53:00
5:53 AM,45.0,28.0,52,30.20,10.0,ENE,5.8,-,N/A,,Mostly Cloudy,60,2013-04-02 10:53:00
6:53 AM,44.1,28.0,53,30.22,10.0,ENE,5.8,-,N/A,,Scattered Clouds,60,2013-04-02 11:53:00
7:53 AM,45.0,26.1,48,30.24,10.0,NE,8.1,-,N/A,,Mostly Cloudy,50,2013-04-02 12:53:00
8:53 AM,48.0,27.0,44,30.25,10.0,NE,10.4,-,N/A,,Mostly Cloudy,40,2013-04-02 13:53:00
9:53 AM,48.0,25.0,41,30.26,10.0,NE,9.2,-,N/A,,Overcast,50,2013-04-02 14:53:00
10:53 AM,50.0,25.0,38,30.25,10.0,ENE,8.1,-,N/A,,Mostly Cloudy,70,2013-04-02 15:53:00
11:53 AM,54.0,26.1,34,30.25,10.0,North,6.9,-,N/A,,Mostly Cloudy,360,2013-04-02 16:53:00
12:53 PM,54.0,25.0,33,30.24,10.0,ENE,6.9,-,N/A,,Overcast,60,2013-04-02 17:53:00
1:53 PM,55.9,25.0,30,30.23,10.0,North,6.9,-,N/A,,Overcast,350,2013-04-02 18:53:00
2:53 PM,53.1,25.0,34,30.22,10.0,North,6.9,-,N/A,,Overcast,10,2013-04-02 19:53:00
3:53 PM,53.1,24.1,32,30.20,10.0,NNE,6.9,-,N/A,,Overcast,30,2013-04-02 20:53:00
4:53 PM,52.0,26.1,37,30.21,10.0,NNE,3.5,-,N/A,,Overcast,20,2013-04-02 21:53:00
5:53 PM,52.0,27.0,38,30.21,10.0,NNE,8.1,-,N/A,,Overcast,20,2013-04-02 22:53:00
6:53 PM,51.1,26.1,38,30.21,10.0,NE,6.9,-,N/A,,Mostly Cloudy,50,2013-04-02 23:53:00
7:53 PM,50.0,26.1,39,30.21,10.0,NNE,5.8,-,N/A,,Mostly Cloudy,20,2013-04-03 00:53:00
8:53 PM,50.0,26.1,39,30.22,10.0,NNE,4.6,-,N/A,,Overcast,20,2013-04-03 01:53:00
9:53 PM,48.9,26.1,41,30.23,10.0,NE,6.9,-,N/A,,Mostly Cloudy,40,2013-04-03 02:53:00
10:53 PM,48.9,27.0,43,30.23,10.0,ENE,6.9,-,N/A,,Overcast,60,2013-04-03 03:53:00
11:53 PM,46.9,28.0,48,30.22,10.0,NE,10.4,-,N/A,,Overcast,50,2013-04-03 04:53:00